KOA185 YSSY-YMML

Flight info

Callsign KOA185
Flight time 1h 3m
Altitude 38000
Route MARUB7/34R WOL DCT CB DCT BOYSE BOYS9V
Aircraft A20N/M-SDE2E3FGHIJ1RWXY/LB1

Departure

Time 2026-04-26 04:44
Airport Sydney Kingsford Smith International Airport (YSSY)

Arrival

Time 2026-04-26 05:47
Airport Melbourne Airport (YMML)
Time Latitude Longitude Altitude Speed Heading
2026-04-26 04:14 -33.93160 151.17856 30 ft 0 kts 190°
2026-04-26 04:28 -33.93148 151.17859 30 ft 2 kts 190°
2026-04-26 04:28 -33.93132 151.17862 30 ft 2 kts 192°
2026-04-26 04:29 -33.93116 151.17867 30 ft 2 kts 194°
2026-04-26 04:29 -33.93101 151.17872 30 ft 2 kts 199°
2026-04-26 04:29 -33.93085 151.17880 30 ft 2 kts 216°
2026-04-26 04:29 -33.93076 151.17895 30 ft 2 kts 272°
2026-04-26 04:30 -33.93077 151.17903 30 ft 0 kts 279°
2026-04-26 04:30 -33.93076 151.17901 30 ft 1 kts 279°
2026-04-26 04:30 -33.93074 151.17885 30 ft 3 kts 279°
2026-04-26 04:30 -33.93068 151.17841 30 ft 7 kts 279°
2026-04-26 04:31 -33.93058 151.17766 30 ft 11 kts 279°
2026-04-26 04:31 -33.93044 151.17663 30 ft 14 kts 279°
2026-04-26 04:31 -33.93042 151.17649 30 ft 0 kts 279°
2026-04-26 04:35 -33.93042 151.17648 30 ft 1 kts 279°
2026-04-26 04:35 -33.93044 151.17626 30 ft 6 kts 263°
2026-04-26 04:35 -33.93074 151.17557 30 ft 14 kts 224°
2026-04-26 04:35 -33.93184 151.17531 29 ft 19 kts 160°
2026-04-26 04:36 -33.93324 151.17583 30 ft 24 kts 179°
2026-04-26 04:36 -33.93503 151.17592 28 ft 27 kts 172°
2026-04-26 04:36 -33.93689 151.17661 30 ft 29 kts 157°
2026-04-26 04:36 -33.93893 151.17764 20 ft 32 kts 156°
2026-04-26 04:37 -33.94106 151.17836 25 ft 32 kts 169°
2026-04-26 04:37 -33.94326 151.17895 26 ft 33 kts 166°
2026-04-26 04:37 -33.94551 151.17894 23 ft 33 kts 179°
2026-04-26 04:37 -33.94624 151.17901 25 ft 0 kts 164°
2026-04-26 04:38 -33.94643 151.17907 27 ft 10 kts 164°
2026-04-26 04:38 -33.94752 151.17945 21 ft 22 kts 164°
2026-04-26 04:38 -33.94932 151.17990 22 ft 30 kts 168°
2026-04-26 04:38 -33.95069 151.18037 27 ft 18 kts 142°
2026-04-26 04:39 -33.95083 151.18161 24 ft 15 kts 86°
2026-04-26 04:39 -33.95056 151.18285 24 ft 16 kts 87°
2026-04-26 04:39 -33.95046 151.18425 30 ft 19 kts 95°
2026-04-26 04:39 -33.95132 151.18568 30 ft 26 kts 137°
2026-04-26 04:40 -33.95302 151.18717 28 ft 33 kts 157°
2026-04-26 04:40 -33.95537 151.18782 26 ft 36 kts 169°
2026-04-26 04:40 -33.95781 151.18844 27 ft 36 kts 167°
2026-04-26 04:40 -33.96024 151.18908 29 ft 36 kts 169°
2026-04-26 04:41 -33.96272 151.18970 29 ft 36 kts 169°
2026-04-26 04:41 -33.96529 151.19029 19 ft 39 kts 168°
2026-04-26 04:41 -33.96706 151.19099 18 ft 18 kts 129°
2026-04-26 04:41 -33.96704 151.19163 16 ft 0 kts 45°
2026-04-26 04:42 -33.96698 151.19169 18 ft 3 kts 42°
2026-04-26 04:42 -33.96660 151.19192 17 ft 9 kts 23°
2026-04-26 04:43 -33.96591 151.19218 20 ft 12 kts 14°
2026-04-26 04:43 -33.96501 151.19228 21 ft 14 kts 349°
2026-04-26 04:43 -33.96188 151.19150 27 ft 87 kts 347°
2026-04-26 04:43 -33.95355 151.18935 22 ft 155 kts 348°
2026-04-26 04:44 -33.94192 151.18633 397 ft 183 kts 353°
2026-04-26 04:44 -33.92961 151.18859 1263 ft 187 kts 29°
2026-04-26 04:44 -33.91983 151.20039 1841 ft 218 kts 60°
2026-04-26 04:44 -33.91533 151.21957 1971 ft 265 kts 84°
2026-04-26 04:45 -33.91743 151.24393 1516 ft 325 kts 103°
2026-04-26 04:45 -33.92531 151.27217 1081 ft 375 kts 106°
2026-04-26 04:45 -33.93257 151.30238 2087 ft 368 kts 104°
2026-04-26 04:45 -33.93959 151.33194 3110 ft 368 kts 104°
2026-04-26 04:46 -33.94644 151.36102 4575 ft 347 kts 104°
2026-04-26 04:46 -33.95281 151.38865 5942 ft 337 kts 99°
2026-04-26 04:46 -33.95342 151.41625 7316 ft 324 kts 88°
2026-04-26 04:46 -33.95552 151.44250 8737 ft 307 kts 105°
2026-04-26 04:47 -33.96436 151.46514 10168 ft 294 kts 126°
2026-04-26 04:47 -33.97903 151.48250 10896 ft 305 kts 147°
2026-04-26 04:47 -33.99928 151.49243 11168 ft 329 kts 170°
2026-04-26 04:47 -34.02266 151.49187 11595 ft 343 kts 194°
2026-04-26 04:48 -34.06207 151.46016 13173 ft 352 kts 228°
2026-04-26 04:48 -34.07824 151.43755 13949 ft 357 kts 230°
2026-04-26 04:48 -34.09432 151.41452 14651 ft 361 kts 229°
2026-04-26 04:49 -34.11083 151.39139 15311 ft 366 kts 229°
2026-04-26 04:49 -34.12774 151.36830 15993 ft 370 kts 228°
2026-04-26 04:49 -34.14506 151.34502 16648 ft 374 kts 227°
2026-04-26 04:49 -34.16264 151.32157 17335 ft 379 kts 227°
2026-04-26 04:50 -34.18028 151.29810 17908 ft 384 kts 227°
2026-04-26 04:50 -34.19836 151.27402 18514 ft 391 kts 227°
2026-04-26 04:50 -34.21668 151.24961 19150 ft 392 kts 227°
2026-04-26 04:50 -34.23508 151.22507 19682 ft 397 kts 227°
2026-04-26 04:51 -34.25367 151.20023 20305 ft 399 kts 227°
2026-04-26 04:51 -34.27244 151.17520 20831 ft 403 kts 227°
2026-04-26 04:51 -34.29131 151.15001 21427 ft 407 kts 228°
2026-04-26 04:51 -34.31030 151.12446 21996 ft 409 kts 228°
2026-04-26 04:52 -34.32948 151.09866 22481 ft 415 kts 228°
2026-04-26 04:52 -34.34883 151.07272 23083 ft 417 kts 228°
2026-04-26 04:52 -34.36843 151.04646 23550 ft 422 kts 228°
2026-04-26 04:52 -34.38815 151.02000 24035 ft 426 kts 228°
2026-04-26 04:53 -34.40803 150.99329 24552 ft 426 kts 228°
2026-04-26 04:53 -34.42767 150.96689 25011 ft 429 kts 228°
2026-04-26 04:53 -34.44794 150.93960 25477 ft 432 kts 228°
2026-04-26 04:53 -34.46803 150.91252 25975 ft 432 kts 228°
2026-04-26 04:54 -34.48818 150.88533 26399 ft 435 kts 228°
2026-04-26 04:54 -34.50839 150.85807 26866 ft 436 kts 229°
2026-04-26 04:54 -34.52867 150.83069 27335 ft 437 kts 229°
2026-04-26 04:54 -34.54909 150.80310 27732 ft 440 kts 229°
2026-04-26 04:55 -34.56824 150.77422 28150 ft 440 kts 235°
2026-04-26 04:55 -34.58630 150.74405 28550 ft 442 kts 234°
2026-04-26 04:55 -34.60446 150.71394 28921 ft 444 kts 234°
2026-04-26 04:55 -34.62280 150.68357 29308 ft 446 kts 234°
2026-04-26 04:56 -34.64118 150.65312 29683 ft 448 kts 234°
2026-04-26 04:56 -34.65960 150.62254 30033 ft 449 kts 234°
2026-04-26 04:56 -34.67803 150.59190 30373 ft 451 kts 234°
2026-04-26 04:56 -34.69663 150.56095 30683 ft 453 kts 234°
2026-04-26 04:57 -34.71523 150.52996 31025 ft 454 kts 234°
2026-04-26 04:57 -34.73384 150.49893 31320 ft 455 kts 234°
2026-04-26 04:57 -34.75246 150.46786 31724 ft 454 kts 234°
2026-04-26 04:57 -34.77104 150.43684 32119 ft 453 kts 234°
2026-04-26 04:58 -34.78955 150.40589 32510 ft 452 kts 234°
2026-04-26 04:58 -34.80799 150.37503 32944 ft 450 kts 234°
2026-04-26 04:58 -34.82636 150.34427 33282 ft 449 kts 234°
2026-04-26 04:58 -34.84473 150.31348 33651 ft 448 kts 234°
2026-04-26 04:59 -34.86301 150.28281 34028 ft 447 kts 234°
2026-04-26 04:59 -34.88125 150.25219 34354 ft 446 kts 234°
2026-04-26 04:59 -34.89942 150.22165 34630 ft 446 kts 234°
2026-04-26 04:59 -34.91761 150.19107 34892 ft 445 kts 234°
2026-04-26 05:00 -34.93576 150.16052 35148 ft 445 kts 234°
2026-04-26 05:00 -34.95365 150.13038 35422 ft 444 kts 234°
2026-04-26 05:00 -34.97199 150.09946 35665 ft 444 kts 235°
2026-04-26 05:00 -34.99003 150.06902 35928 ft 443 kts 235°
2026-04-26 05:01 -35.00778 150.03904 36175 ft 442 kts 235°
2026-04-26 05:01 -35.02580 150.00857 36358 ft 443 kts 235°
2026-04-26 05:01 -35.04383 149.97805 36555 ft 443 kts 235°
2026-04-26 05:01 -35.06185 149.94755 36784 ft 443 kts 235°
2026-04-26 05:02 -35.07983 149.91704 36966 ft 443 kts 235°
2026-04-26 05:02 -35.09782 149.88651 37179 ft 443 kts 235°
2026-04-26 05:02 -35.11580 149.85599 37378 ft 442 kts 235°
2026-04-26 05:02 -35.13374 149.82552 37561 ft 442 kts 236°
2026-04-26 05:03 -35.14590 149.80487 37700 ft 442 kts 236°
2026-04-26 05:03 -35.16358 149.77479 37851 ft 442 kts 236°
2026-04-26 05:03 -35.18152 149.74425 38019 ft 442 kts 236°
2026-04-26 05:03 -35.19943 149.71371 38172 ft 442 kts 236°
2026-04-26 05:04 -35.23576 149.65172 38226 ft 449 kts 236°
2026-04-26 05:04 -35.27217 149.58959 38228 ft 455 kts 236°
2026-04-26 05:05 -35.30920 149.52622 38241 ft 460 kts 236°
2026-04-26 05:05 -35.34654 149.46209 38241 ft 463 kts 236°
2026-04-26 05:06 -35.38396 149.39770 38251 ft 465 kts 236°
2026-04-26 05:06 -35.42158 149.33286 38251 ft 467 kts 236°
2026-04-26 05:07 -35.45924 149.26785 38250 ft 468 kts 236°
2026-04-26 05:07 -35.49696 149.20261 38243 ft 469 kts 236°
2026-04-26 05:08 -35.53466 149.13728 38242 ft 470 kts 236°
2026-04-26 05:08 -35.57239 149.07177 38234 ft 470 kts 236°
2026-04-26 05:09 -35.61011 149.00617 38221 ft 470 kts 236°
2026-04-26 05:09 -35.64781 148.94049 38217 ft 470 kts 236°
2026-04-26 05:10 -35.68549 148.87471 38225 ft 470 kts 236°
2026-04-26 05:10 -35.72311 148.80891 38235 ft 470 kts 236°
2026-04-26 05:11 -35.76070 148.74304 38231 ft 470 kts 236°
2026-04-26 05:11 -35.79824 148.67714 38236 ft 470 kts 237°
2026-04-26 05:12 -35.83575 148.61116 38236 ft 470 kts 236°
2026-04-26 05:12 -35.87327 148.54504 38239 ft 470 kts 236°
2026-04-26 05:13 -35.91062 148.47896 38238 ft 470 kts 237°
2026-04-26 05:13 -35.94789 148.41273 38241 ft 470 kts 237°
2026-04-26 05:14 -35.98511 148.34646 38239 ft 469 kts 237°
2026-04-26 05:14 -36.02230 148.28016 38240 ft 469 kts 237°
2026-04-26 05:15 -36.05942 148.21386 38241 ft 469 kts 237°
2026-04-26 05:15 -36.09654 148.14740 38241 ft 470 kts 237°
2026-04-26 05:16 -36.13365 148.08093 38236 ft 470 kts 237°
2026-04-26 05:16 -36.17083 148.01445 38233 ft 470 kts 237°
2026-04-26 05:17 -36.20802 147.94785 38234 ft 470 kts 237°
2026-04-26 05:17 -36.24508 147.88131 38228 ft 470 kts 237°
2026-04-26 05:18 -36.28226 147.81444 38225 ft 470 kts 237°
2026-04-26 05:18 -36.31909 147.74809 38224 ft 470 kts 237°
2026-04-26 05:19 -36.35604 147.68115 38224 ft 470 kts 238°
2026-04-26 05:19 -36.39313 147.61363 38230 ft 471 kts 238°
2026-04-26 05:20 -36.43008 147.54644 38227 ft 471 kts 238°
2026-04-26 05:20 -36.46677 147.47965 38225 ft 471 kts 238°
2026-04-26 05:21 -36.50363 147.41242 38224 ft 471 kts 238°
2026-04-26 05:21 -36.54056 147.34492 38228 ft 472 kts 238°
2026-04-26 05:22 -36.57767 147.27698 38189 ft 472 kts 238°
2026-04-26 05:22 -36.61429 147.20977 38126 ft 473 kts 238°
2026-04-26 05:23 -36.65119 147.14192 38056 ft 473 kts 238°
2026-04-26 05:23 -36.68805 147.07399 37974 ft 472 kts 238°
2026-04-26 05:24 -36.72436 147.00699 37840 ft 461 kts 238°
2026-04-26 05:24 -36.74225 146.97393 37663 ft 460 kts 238°
2026-04-26 05:24 -36.76013 146.94082 37386 ft 461 kts 238°
2026-04-26 05:25 -36.77809 146.90751 37127 ft 462 kts 238°
2026-04-26 05:25 -36.79604 146.87419 36956 ft 465 kts 238°
2026-04-26 05:25 -36.81409 146.84069 37082 ft 464 kts 238°
2026-04-26 05:25 -36.83203 146.80735 37219 ft 463 kts 238°
2026-04-26 05:26 -36.85006 146.77381 37064 ft 468 kts 238°
2026-04-26 05:26 -36.86822 146.74002 37028 ft 470 kts 238°
2026-04-26 05:26 -36.90463 146.67209 36954 ft 466 kts 238°
2026-04-26 05:27 -36.92236 146.63901 36722 ft 452 kts 238°
2026-04-26 05:27 -36.93974 146.60655 36233 ft 446 kts 238°
2026-04-26 05:27 -36.95694 146.57434 35547 ft 446 kts 238°
2026-04-26 05:27 -36.97419 146.54200 34792 ft 447 kts 238°
2026-04-26 05:28 -36.99145 146.50961 33973 ft 447 kts 238°
2026-04-26 05:28 -37.00868 146.47726 32740 ft 449 kts 238°
2026-04-26 05:28 -37.02605 146.44459 31406 ft 454 kts 238°
2026-04-26 05:28 -37.04367 146.41143 30010 ft 460 kts 238°
2026-04-26 05:29 -37.06146 146.37795 28512 ft 464 kts 238°
2026-04-26 05:29 -37.07939 146.34420 27092 ft 466 kts 238°
2026-04-26 05:29 -37.09737 146.31029 25586 ft 469 kts 238°
2026-04-26 05:29 -37.11553 146.27603 24051 ft 475 kts 239°
2026-04-26 05:30 -37.13374 146.24162 22699 ft 471 kts 239°
2026-04-26 05:30 -37.15168 146.20774 21520 ft 463 kts 239°
2026-04-26 05:30 -37.16932 146.17436 20363 ft 455 kts 239°
2026-04-26 05:30 -37.18668 146.14147 19240 ft 449 kts 239°
2026-04-26 05:31 -37.20381 146.10900 18090 ft 444 kts 239°
2026-04-26 05:31 -37.22065 146.07701 17008 ft 435 kts 239°
2026-04-26 05:31 -37.23713 146.04569 16029 ft 424 kts 239°
2026-04-26 05:31 -37.25321 146.01507 14963 ft 417 kts 239°
2026-04-26 05:32 -37.26899 145.98499 14041 ft 407 kts 239°
2026-04-26 05:32 -37.28423 145.95597 13509 ft 387 kts 239°
2026-04-26 05:32 -37.29858 145.92863 13285 ft 363 kts 239°
2026-04-26 05:32 -37.31196 145.90314 13205 ft 336 kts 239°
2026-04-26 05:33 -37.32437 145.87959 13198 ft 311 kts 240°
2026-04-26 05:33 -37.33586 145.85786 13164 ft 288 kts 240°
2026-04-26 05:33 -37.34665 145.83734 12905 ft 275 kts 240°
2026-04-26 05:33 -37.35693 145.81777 12635 ft 261 kts 240°
2026-04-26 05:34 -37.36666 145.79915 12373 ft 250 kts 240°
2026-04-26 05:34 -37.37606 145.78109 11988 ft 244 kts 240°
2026-04-26 05:34 -37.38548 145.76295 11500 ft 261 kts 240°
2026-04-26 05:34 -37.39594 145.74267 11269 ft 281 kts 240°
2026-04-26 05:35 -37.40658 145.72229 11022 ft 276 kts 239°
2026-04-26 05:35 -37.41706 145.70233 10775 ft 271 kts 239°
2026-04-26 05:35 -37.42731 145.68278 10527 ft 265 kts 239°
2026-04-26 05:35 -37.43734 145.66360 10285 ft 259 kts 239°
2026-04-26 05:36 -37.44709 145.64495 10073 ft 251 kts 240°
2026-04-26 05:36 -37.45658 145.62707 9932 ft 240 kts 238°
2026-04-26 05:36 -37.46622 145.61035 9796 ft 231 kts 237°
2026-04-26 05:36 -37.47580 145.59420 9673 ft 239 kts 237°
2026-04-26 05:37 -37.48609 145.57676 9544 ft 250 kts 237°
2026-04-26 05:37 -37.49661 145.55873 9423 ft 261 kts 237°
2026-04-26 05:37 -37.50754 145.53997 9298 ft 271 kts 237°
2026-04-26 05:37 -37.51872 145.52074 9178 ft 281 kts 237°
2026-04-26 05:38 -37.53046 145.50053 9066 ft 290 kts 237°
2026-04-26 05:38 -37.54248 145.47982 9009 ft 295 kts 237°
2026-04-26 05:38 -37.55450 145.45912 9018 ft 290 kts 237°
2026-04-26 05:38 -37.56649 145.43849 8971 ft 286 kts 237°
2026-04-26 05:39 -37.57803 145.41863 8893 ft 285 kts 237°
2026-04-26 05:39 -37.58972 145.39845 8762 ft 284 kts 237°
2026-04-26 05:39 -37.60140 145.37832 8637 ft 285 kts 237°
2026-04-26 05:39 -37.61306 145.35815 8493 ft 284 kts 237°
2026-04-26 05:40 -37.62471 145.33806 8372 ft 284 kts 237°
2026-04-26 05:40 -37.63634 145.31795 8247 ft 284 kts 237°
2026-04-26 05:40 -37.64792 145.29781 8115 ft 284 kts 237°
2026-04-26 05:40 -37.65954 145.27765 7995 ft 284 kts 237°
2026-04-26 05:41 -37.67115 145.25746 7835 ft 286 kts 238°
2026-04-26 05:41 -37.68285 145.23710 7738 ft 285 kts 237°
2026-04-26 05:41 -37.69446 145.21696 7700 ft 282 kts 237°
2026-04-26 05:41 -37.70585 145.19719 7580 ft 277 kts 237°
2026-04-26 05:42 -37.71733 145.17724 7042 ft 283 kts 237°
2026-04-26 05:42 -37.72902 145.15685 6360 ft 292 kts 237°
2026-04-26 05:42 -37.74108 145.13581 5608 ft 301 kts 238°
2026-04-26 05:42 -37.75291 145.11368 4844 ft 306 kts 247°
2026-04-26 05:43 -37.75838 145.08772 3960 ft 310 kts 269°
2026-04-26 05:43 -37.75847 145.06053 3451 ft 308 kts 272°
2026-04-26 05:43 -37.75848 145.03378 3173 ft 298 kts 272°
2026-04-26 05:43 -37.75874 145.00811 2837 ft 290 kts 272°
2026-04-26 05:44 -37.75917 144.98231 2290 ft 293 kts 272°
2026-04-26 05:44 -37.75972 144.95686 2077 ft 284 kts 272°
2026-04-26 05:44 -37.76046 144.93247 1996 ft 271 kts 271°
2026-04-26 05:44 -37.76121 144.90958 1989 ft 246 kts 271°
2026-04-26 05:45 -37.76193 144.88965 2007 ft 207 kts 271°
2026-04-26 05:45 -37.76174 144.87207 1995 ft 200 kts 287°
2026-04-26 05:45 -37.75493 144.85797 1998 ft 190 kts 323°
2026-04-26 05:45 -37.74262 144.85214 2004 ft 183 kts 351°
2026-04-26 05:46 -37.73081 144.84997 1767 ft 168 kts 349°
2026-04-26 05:46 -37.71955 144.84703 1335 ft 165 kts 351°
2026-04-26 05:46 -37.71204 144.84527 1101 ft 165 kts 351°
2026-04-26 05:46 -37.69665 144.84237 683 ft 173 kts 353°
2026-04-26 05:47 -37.68890 144.84148 504 ft 162 kts 350°
2026-04-26 05:47 -37.67874 144.83974 355 ft 126 kts 351°
2026-04-26 05:47 -37.67204 144.83844 377 ft 68 kts 350°
2026-04-26 05:47 -37.66992 144.83831 381 ft 16 kts 28°
2026-04-26 05:48 -37.66861 144.83895 383 ft 24 kts 19°
2026-04-26 05:48 -37.66716 144.84035 381 ft 28 kts 79°
2026-04-26 05:48 -37.66775 144.84271 371 ft 29 kts 72°
2026-04-26 05:48 -37.66758 144.84355 367 ft 0 kts 79°